Powrót do katalogu

STARLINK-36222

AktywnyŁącznośćVLEO
NORAD 67097·PAYLOAD·🇺🇸 United States

Wystrzelony Dec 14, 2025 z Vandenberg Space Force Base

Loading…

Następne Przeloty (najbliższe 24 godziny)

TLE

ŚwieżeSource: CelesTrak SupGP

Epoka: Sep 14, 2026, 21:03 UTC

1 67097C 25298Y   26257.87756944  .00073476  00000+0  61575-2 0  2576
2 67097  69.9995 257.5648 0003865 263.8628  64.5701 14.98291998    16

Śledź STARLINK-36222 w czasie rzeczywistym z AllMySat

Download on the App Store